Location: ??????
(41.3794°N, 22.5014°E)
Time: 22:13:52
(UTC+00:00)

NOSS 3-2 (C) - Pass Details

Date: 30 November 2020
Orbit: 789 x 1424 km, 63.4° (Epoch: 09 January)

Event Time Altitude Azimuth Distance (km) Brightness Sun altitude
Rises 17:02:40 0° 195° (SSW) 3,294 6.6 -22.2°
Reaches altitude 10° 17:05:03 10° 190° (S) 2,401 5.8 -22.6°
Maximum altitude 17:10:18 48° 117° (ESE) 1,125 3.5 -23.6°
Enters shadow 17:10:19 48° 116° (ESE) 1,125 3.5 -23.6°
